• In Portugal
  • List of Countries
  • For 7 days
  • Water Temperature
  • Satellite Maps
  • Weather Map
  • Weather Widgets
  • user-avatar
    Login

    Hourly Weather Gaborone

    Today, 23 August, Wednesday

    Time Temperature Precipitation Wind Pressure Humidity
    00:00 +14°C° 0 mm 4 mps 678 mmHg 21%
    01:00 +13°C° 0 mm 4 mps 678 mmHg 22%
    02:00 +12°C° 0 mm 4 mps 678 mmHg 24%
    03:00 +11°C° 0 mm 3 mps 678 mmHg 26%
    04:00 +10°C° 0 mm 3 mps 677 mmHg 28%
    05:00 +9°C° 0 mm 3 mps 677 mmHg 30%
    06:00 +9°C° 0 mm 3 mps 678 mmHg 30%
    07:00 +10°C° 0 mm 3 mps 678 mmHg 30%
    08:00 +10°C° 0 mm 3 mps 678 mmHg 29%
    09:00 +13°C° 0 mm 3 mps 679 mmHg 25%
    10:00 +16°C° 0 mm 3 mps 679 mmHg 20%
    11:00 +19°C° 0 mm 3 mps 679 mmHg 15%
    12:00 +21°C° 0 mm 2 mps 679 mmHg 13%
    13:00 +24°C° 0 mm 2 mps 678 mmHg 10%
    14:00 +26°C° 0 mm 2 mps 678 mmHg 8%
    15:00 +26°C° 0 mm 2 mps 678 mmHg 8%
    16:00 +26°C° 0 mm 2 mps 677 mmHg 8%
    17:00 +26°C° 0 mm 2 mps 677 mmHg 7%
    18:00 +24°C° 0 mm 2 mps 677 mmHg 9%
    19:00 +21°C° 0 mm 1 mps 677 mmHg 10%
    20:00 +19°C° 0 mm 1 mps 677 mmHg 12%
    21:00 +18°C° 0 mm 1 mps 677 mmHg 13%
    22:00 +18°C° 0 mm 1 mps 677 mmHg 13%
    23:00 +16°C° 0 mm 2 mps 677 mmHg 14%

    Tomorrow, 24 August, Thursday

    Time Temperature Precipitation Wind Pressure Humidity
    00:00 +15°C° 0 mm 2 mps 677 mmHg 15%
    01:00 +15°C° 0 mm 2 mps 677 mmHg 16%
    02:00 +14°C° 0 mm 2 mps 676 mmHg 17%
    03:00 +13°C° 0 mm 2 mps 676 mmHg 18%
    04:00 +13°C° 0 mm 2 mps 676 mmHg 19%
    05:00 +12°C° 0 mm 1 mps 676 mmHg 20%
    06:00 +13°C° 0 mm 1 mps 676 mmHg 19%
    07:00 +14°C° 0 mm 1 mps 677 mmHg 18%
    08:00 +15°C° 0 mm 1 mps 677 mmHg 17%
    09:00 +19°C° 0 mm 1 mps 678 mmHg 15%
    10:00 +22°C° 0 mm 1 mps 678 mmHg 12%
    11:00 +25°C° 0 mm 2 mps 678 mmHg 10%
    12:00 +26°C° 0 mm 2 mps 678 mmHg 8%
    13:00 +27°C° 0 mm 3 mps 677 mmHg 7%
    14:00 +29°C° 0 mm 4 mps 677 mmHg 6%
    15:00 +28°C° 0 mm 4 mps 676 mmHg 6%
    16:00 +28°C° 0 mm 4 mps 676 mmHg 6%
    17:00 +28°C° 0 mm 4 mps 676 mmHg 7%
    18:00 +26°C° 0 mm 3 mps 676 mmHg 8%
    19:00 +22°C° 0 mm 3 mps 676 mmHg 10%
    20:00 +20°C° 0 mm 2 mps 676 mmHg 11%
    21:00 +19°C° 0 mm 2 mps 676 mmHg 12%
    22:00 +18°C° 0 mm 2 mps 676 mmHg 13%
    23:00 +18°C° 0 mm 1 mps 676 mmHg 14%

    Day after tomorrow, 25 August, Friday

    Time Temperature Precipitation Wind Pressure Humidity
    00:00 +18°C° 0 mm 1 mps 676 mmHg 15%
    01:00 +16°C° 0 mm 1 mps 676 mmHg 15%
    02:00 +15°C° 0 mm 1 mps 675 mmHg 16%
    03:00 +15°C° 0 mm 1 mps 675 mmHg 16%
    04:00 +14°C° 0 mm 1 mps 675 mmHg 16%
    05:00 +14°C° 0 mm 1 mps 675 mmHg 17%
    06:00 +15°C° 0 mm 1 mps 676 mmHg 15%
    07:00 +15°C° 0 mm 1 mps 676 mmHg 14%
    08:00 +16°C° 0 mm 1 mps 677 mmHg 13%
    09:00 +19°C° 0 mm 2 mps 677 mmHg 11%
    10:00 +23°C° 0 mm 2 mps 678 mmHg 9%
    11:00 +26°C° 0 mm 2 mps 678 mmHg 8%
    12:00 +27°C° 0 mm 2 mps 678 mmHg 7%
    13:00 +28°C° 0 mm 2 mps 677 mmHg 7%
    14:00 +30°C° 0 mm 1 mps 677 mmHg 7%
    15:00 +29°C° 0 mm 1 mps 676 mmHg 7%
    16:00 +29°C° 0 mm 1 mps 676 mmHg 7%
    17:00 +29°C° 0 mm 1 mps 676 mmHg 7%
    18:00 +27°C° 0 mm 1 mps 676 mmHg 8%
    19:00 +24°C° 0 mm 1 mps 676 mmHg 10%
    20:00 +21°C° 0 mm 2 mps 676 mmHg 11%
    21:00 +20°C° 0 mm 2 mps 676 mmHg 11%
    22:00 +19°C° 0 mm 2 mps 676 mmHg 12%
    23:00 +18°C° 0 mm 2 mps 677 mmHg 13%

    26 August, Saturday

    Time Temperature Precipitation Wind Pressure Humidity
    00:00 +18°C° 0 mm 2 mps 676 mmHg 13%
    01:00 +17°C° 0 mm 2 mps 676 mmHg 14%
    02:00 +16°C° 0 mm 1 mps 676 mmHg 14%
    03:00 +16°C° 0 mm 2 mps 676 mmHg 16%
    04:00 +15°C° 0 mm 2 mps 676 mmHg 18%
    05:00 +14°C° 0 mm 2 mps 676 mmHg 19%
    06:00 +14°C° 0 mm 4 mps 677 mmHg 35%
    07:00 +15°C° 0 mm 5 mps 677 mmHg 50%
    08:00 +15°C° 0 mm 7 mps 678 mmHg 65%
    09:00 +16°C° 0 mm 7 mps 678 mmHg 65%
    10:00 +16°C° 0 mm 6 mps 678 mmHg 65%
    11:00 +17°C° 0 mm 6 mps 678 mmHg 64%
    12:00 +17°C° 0 mm 6 mps 678 mmHg 61%
    13:00 +19°C° 0 mm 6 mps 677 mmHg 57%
    14:00 +20°C° 0 mm 5 mps 677 mmHg 53%
    15:00 +21°C° 0 mm 5 mps 677 mmHg 51%
    16:00 +22°C° 0 mm 5 mps 677 mmHg 48%
    17:00 +22°C° 0 mm 5 mps 677 mmHg 45%
    18:00 +21°C° 0 mm 5 mps 677 mmHg 49%
    19:00 +20°C° 0 mm 5 mps 677 mmHg 53%
    20:00 +19°C° 0 mm 5 mps 677 mmHg 56%
    21:00 +18°C° 0 mm 4 mps 677 mmHg 60%
    22:00 +17°C° 0 mm 4 mps 677 mmHg 64%
    23:00 +17°C° 0 mm 4 mps 677 mmHg 69%

    27 August, Sunday

    Time Temperature Precipitation Wind Pressure Humidity
    00:00 +15°C° 0 mm 4 mps 677 mmHg 72%
    01:00 +14°C° 0 mm 3 mps 677 mmHg 76%
    02:00 +13°C° 0 mm 3 mps 676 mmHg 80%
    03:00 +13°C° 0 mm 3 mps 677 mmHg 79%
    04:00 +14°C° 0 mm 3 mps 677 mmHg 79%
    05:00 +14°C° 0 mm 3 mps 677 mmHg 79%
    06:00 +14°C° 0 mm 3 mps 677 mmHg 77%
    07:00 +14°C° 0 mm 3 mps 678 mmHg 75%
    08:00 +16°C° 0 mm 3 mps 678 mmHg 74%
    09:00 +17°C° 0 mm 3 mps 679 mmHg 69%
    10:00 +18°C° 0 mm 3 mps 679 mmHg 63%
    11:00 +19°C° 0 mm 2 mps 679 mmHg 58%
    12:00 +23°C° 0 mm 2 mps 678 mmHg 50%
    13:00 +25°C° 0 mm 1 mps 678 mmHg 41%
    14:00 +27°C° 0 mm 1 mps 678 mmHg 33%
    15:00 +27°C° 0 mm 1 mps 678 mmHg 31%
    16:00 +27°C° 0 mm 1 mps 677 mmHg 28%
    17:00 +26°C° 0 mm 1 mps 677 mmHg 26%
    18:00 +25°C° 0 mm 1 mps 678 mmHg 29%
    19:00 +23°C° 0 mm 1 mps 678 mmHg 33%
    20:00 +21°C° 0 mm 1 mps 678 mmHg 36%
    21:00 +21°C° 0 mm 1 mps 678 mmHg 37%
    22:00 +20°C° 0 mm 1 mps 678 mmHg 38%
    23:00 +20°C° 0 mm 1 mps 678 mmHg 39%

    28 August, Monday

    Time Temperature Precipitation Wind Pressure Humidity
    00:00 +19°C° 0 mm 1 mps 678 mmHg 39%
    01:00 +19°C° 0 mm 1 mps 678 mmHg 40%
    02:00 +17°C° 0 mm 2 mps 678 mmHg 40%
    03:00 +16°C° 0 mm 2 mps 678 mmHg 41%
    04:00 +16°C° 0 mm 1 mps 678 mmHg 41%
    05:00 +15°C° 0 mm 1 mps 678 mmHg 42%
    06:00 +16°C° 0 mm 2 mps 679 mmHg 41%
    07:00 +17°C° 0 mm 2 mps 679 mmHg 40%
    08:00 +18°C° 0 mm 3 mps 680 mmHg 40%
    09:00 +20°C° 0 mm 4 mps 680 mmHg 43%
    10:00 +21°C° 0 mm 5 mps 680 mmHg 47%
    11:00 +23°C° 0 mm 7 mps 681 mmHg 51%
    12:00 +24°C° 0 mm 6 mps 680 mmHg 47%
    13:00 +26°C° 0 mm 6 mps 680 mmHg 43%
    14:00 +27°C° 0 mm 5 mps 679 mmHg 38%
    15:00 +27°C° 0 mm 5 mps 679 mmHg 37%
    16:00 +26°C° 0 mm 5 mps 680 mmHg 35%
    17:00 +26°C° 0 mm 4 mps 680 mmHg 33%
    18:00 +25°C° 0 mm 5 mps 680 mmHg 37%
    19:00 +22°C° 0 mm 6 mps 680 mmHg 42%
    20:00 +21°C° 0 mm 6 mps 680 mmHg 47%
    21:00 +19°C° 0 mm 6 mps 680 mmHg 51%
    22:00 +17°C° 0 mm 6 mps 681 mmHg 55%
    23:00 +16°C° 0 mm 6 mps 681 mmHg 60%
    Show more